EN

Hourly Weather Bartniki

Today, 27 January, Wednesday

Time Temperature Precipitation Wind Pressure Humidity
00:00 -4°C° 0.2 mm 6 mps 742 mmHg 94%
01:00 -4°C° 0 mm 5 mps 742 mmHg 93%
02:00 -4°C° 0.2 mm 6 mps 742 mmHg 94%
03:00 -3°C° 0.2 mm 6 mps 742 mmHg 95%
04:00 -3°C° 0.2 mm 6 mps 742 mmHg 96%
05:00 -3°C° 0.2 mm 6 mps 743 mmHg 96%
06:00 -3°C° 0.2 mm 6 mps 743 mmHg 96%
07:00 -3°C° 0 mm 6 mps 743 mmHg 96%
08:00 -3°C° 0.2 mm 6 mps 743 mmHg 94%
09:00 -3°C° 0.2 mm 6 mps 744 mmHg 93%
10:00 -3°C° 0.2 mm 6 mps 744 mmHg 91%
11:00 -3°C° 0 mm 6 mps 744 mmHg 88%
12:00 -3°C° 0 mm 6 mps 745 mmHg 85%
13:00 -3°C° 0 mm 6 mps 745 mmHg 82%
14:00 -2°C° 0 mm 5 mps 745 mmHg 82%
15:00 -2°C° 0 mm 4 mps 746 mmHg 82%
16:00 -2°C° 0 mm 4 mps 746 mmHg 83%
17:00 -2°C° 0 mm 3 mps 746 mmHg 85%
18:00 -4°C° 0 mm 3 mps 746 mmHg 88%
19:00 -4°C° 0 mm 2 mps 746 mmHg 90%
20:00 -4°C° 0 mm 2 mps 746 mmHg 91%
21:00 -4°C° 0 mm 2 mps 746 mmHg 92%
22:00 -4°C° 0 mm 2 mps 746 mmHg 93%
23:00 -4°C° 0 mm 2 mps 746 mmHg 93%

Tomorrow, 28 January, Thursday

Time Temperature Precipitation Wind Pressure Humidity
00:00 -4°C° 0 mm 2 mps 746 mmHg 94%
01:00 -4°C° 0 mm 3 mps 746 mmHg 95%
02:00 -5°C° 0 mm 3 mps 746 mmHg 95%
03:00 -5°C° 0 mm 3 mps 745 mmHg 95%
04:00 -6°C° 0 mm 3 mps 745 mmHg 95%
05:00 -5°C° 0 mm 3 mps 745 mmHg 95%
06:00 -5°C° 0 mm 3 mps 744 mmHg 95%
07:00 -5°C° 0 mm 4 mps 744 mmHg 95%
08:00 -5°C° 0 mm 4 mps 743 mmHg 93%
09:00 -5°C° 0 mm 5 mps 743 mmHg 91%
10:00 -5°C° 0 mm 5 mps 742 mmHg 90%
11:00 -4°C° 0.1 mm 6 mps 741 mmHg 91%
12:00 -4°C° 0.1 mm 6 mps 740 mmHg 92%
13:00 -4°C° 0.1 mm 6 mps 740 mmHg 93%
14:00 -4°C° 0.5 mm 6 mps 739 mmHg 94%
15:00 -4°C° 0.5 mm 5 mps 739 mmHg 95%
16:00 -4°C° 0.5 mm 5 mps 738 mmHg 96%
17:00 -3°C° 0.1 mm 4 mps 738 mmHg 94%
18:00 -4°C° 0.1 mm 4 mps 737 mmHg 92%
19:00 -5°C° 0.1 mm 3 mps 737 mmHg 90%
20:00 -5°C° 0 mm 3 mps 737 mmHg 90%
21:00 -5°C° 0 mm 4 mps 736 mmHg 90%
22:00 -7°C° 0 mm 4 mps 736 mmHg 91%
23:00 -7°C° 0 mm 4 mps 736 mmHg 91%

Day after tomorrow, 29 January, Friday

Time Temperature Precipitation Wind Pressure Humidity
00:00 -7°C° 0 mm 5 mps 736 mmHg 92%
01:00 -7°C° 0 mm 5 mps 736 mmHg 92%
02:00 -6°C° 0.2 mm 6 mps 735 mmHg 92%
03:00 -7°C° 0.2 mm 7 mps 735 mmHg 91%
04:00 -6°C° 0.2 mm 8 mps 735 mmHg 91%
05:00 -6°C° 0.5 mm 8 mps 735 mmHg 91%
06:00 -6°C° 0.5 mm 8 mps 735 mmHg 92%
07:00 -6°C° 0.5 mm 7 mps 734 mmHg 93%
08:00 -5°C° 0.3 mm 6 mps 735 mmHg 93%
09:00 -5°C° 0.3 mm 5 mps 735 mmHg 92%
10:00 -4°C° 0.3 mm 3 mps 735 mmHg 92%
11:00 -2°C° 0.1 mm 3 mps 735 mmHg 92%
12:00 -2°C° 0.1 mm 2 mps 735 mmHg 92%
13:00 -2°C° 0.1 mm 2 mps 735 mmHg 91%
14:00 -2°C° 0.1 mm 2 mps 735 mmHg 92%
15:00 -2°C° 0.1 mm 2 mps 736 mmHg 93%
16:00 -3°C° 0.1 mm 2 mps 736 mmHg 94%
17:00 -3°C° 0 mm 2 mps 736 mmHg 95%
18:00 -4°C° 0 mm 2 mps 736 mmHg 95%
19:00 -5°C° 0 mm 2 mps 736 mmHg 95%
20:00 -3°C° 0 mm 1 mps 735 mmHg 95%
21:00 -3°C° 0 mm 1 mps 735 mmHg 94%
22:00 -3°C° 0 mm 1 mps 735 mmHg 94%
23:00 -3°C° 0 mm 1 mps 735 mmHg 93%

30 January, Saturday

Time Temperature Precipitation Wind Pressure Humidity
00:00 -3°C° 0 mm 1 mps 735 mmHg 93%
01:00 -3°C° 0 mm 1 mps 735 mmHg 92%
02:00 -3°C° 0 mm 1 mps 735 mmHg 93%
03:00 -3°C° 0 mm 1 mps 735 mmHg 94%
04:00 -3°C° 0 mm 1 mps 734 mmHg 95%
05:00 -3°C° 0 mm 1 mps 734 mmHg 94%
06:00 -3°C° 0 mm 1 mps 734 mmHg 94%
07:00 -2°C° 0 mm 1 mps 734 mmHg 94%
08:00 -2°C° 0.1 mm 1 mps 734 mmHg 94%
09:00 -2°C° 0.1 mm 1 mps 735 mmHg 94%
10:00 -3°C° 0.1 mm 2 mps 735 mmHg 93%
11:00 -3°C° 0.3 mm 2 mps 735 mmHg 92%
12:00 -4°C° 0.3 mm 3 mps 735 mmHg 92%
13:00 -3°C° 0.3 mm 4 mps 735 mmHg 91%
14:00 -4°C° 0.1 mm 4 mps 735 mmHg 90%
15:00 -5°C° 0.1 mm 4 mps 735 mmHg 89%
16:00 -7°C° 0.1 mm 4 mps 735 mmHg 88%
17:00 -7°C° 0 mm 4 mps 736 mmHg 90%
18:00 -7°C° 0 mm 4 mps 736 mmHg 91%
19:00 -8°C° 0 mm 4 mps 736 mmHg 93%
20:00 -7°C° 0 mm 4 mps 736 mmHg 91%
21:00 -7°C° 0 mm 4 mps 736 mmHg 89%
22:00 -7°C° 0 mm 5 mps 737 mmHg 88%
23:00 -7°C° 0 mm 5 mps 737 mmHg 87%

31 January, Sunday

Time Temperature Precipitation Wind Pressure Humidity
00:00 -8°C° 0 mm 5 mps 737 mmHg 86%
01:00 -8°C° 0 mm 5 mps 737 mmHg 85%
02:00 -8°C° 0 mm 5 mps 737 mmHg 86%
03:00 -8°C° 0 mm 5 mps 737 mmHg 87%
04:00 -8°C° 0 mm 5 mps 737 mmHg 87%
05:00 -8°C° 0 mm 5 mps 738 mmHg 89%
06:00 -8°C° 0 mm 5 mps 738 mmHg 90%
07:00 -8°C° 0 mm 5 mps 738 mmHg 92%
08:00 -7°C° 0 mm 5 mps 738 mmHg 92%
09:00 -8°C° 0 mm 6 mps 739 mmHg 92%
10:00 -6°C° 0 mm 6 mps 739 mmHg 92%
11:00 -6°C° 0 mm 6 mps 739 mmHg 90%
12:00 -5°C° 0 mm 6 mps 739 mmHg 89%
13:00 -5°C° 0 mm 6 mps 739 mmHg 88%
14:00 -5°C° 0 mm 6 mps 739 mmHg 88%
15:00 -6°C° 0 mm 6 mps 739 mmHg 87%
16:00 -6°C° 0 mm 5 mps 738 mmHg 87%
17:00 -7°C° 0 mm 5 mps 739 mmHg 87%
18:00 -7°C° 0 mm 5 mps 739 mmHg 87%
19:00 -8°C° 0 mm 5 mps 739 mmHg 87%
20:00 -8°C° 0 mm 5 mps 739 mmHg 86%
21:00 -8°C° 0 mm 5 mps 739 mmHg 86%
22:00 -10°C° 0 mm 5 mps 739 mmHg 86%
23:00 -9°C° 0 mm 4 mps 739 mmHg 85%

1 February, Monday

Time Temperature Precipitation Wind Pressure Humidity
00:00 -9°C° 0 mm 4 mps 739 mmHg 84%
01:00 -9°C° 0 mm 4 mps 739 mmHg 83%
02:00 -10°C° 0 mm 4 mps 739 mmHg 84%
03:00 -9°C° 0 mm 3 mps 739 mmHg 84%
04:00 -9°C° 0 mm 3 mps 738 mmHg 85%
05:00 -9°C° 0 mm 3 mps 739 mmHg 86%
06:00 -9°C° 0 mm 3 mps 739 mmHg 87%
07:00 -10°C° 0 mm 3 mps 739 mmHg 88%
08:00 -9°C° 0 mm 3 mps 739 mmHg 87%
09:00 -8°C° 0 mm 3 mps 739 mmHg 86%
10:00 -7°C° 0 mm 3 mps 739 mmHg 85%
11:00 -7°C° 0 mm 3 mps 739 mmHg 85%
12:00 -5°C° 0 mm 2 mps 739 mmHg 84%
13:00 -4°C° 0 mm 2 mps 739 mmHg 84%
14:00 -5°C° 0 mm 2 mps 739 mmHg 86%
15:00 -6°C° 0 mm 2 mps 739 mmHg 87%
16:00 -4°C° 0 mm 1 mps 739 mmHg 89%
17:00 -7°C° 0 mm 2 mps 739 mmHg 90%
18:00 -7°C° 0 mm 2 mps 740 mmHg 90%
19:00 -8°C° 0 mm 2 mps 740 mmHg 90%
20:00 -8°C° 0 mm 2 mps 741 mmHg 90%
21:00 -8°C° 0 mm 2 mps 741 mmHg 89%
22:00 -9°C° 0 mm 3 mps 741 mmHg 89%
23:00 -8°C° 0 mm 3 mps 742 mmHg 90%
Show more

We Need Your Consent

Meteoprog and our Service Providers may store and access personal data such as cookies, device identifiers or other similar technologies on your device and process such data to personalise content and ads, as well as provide social media features and to analyse the traffic.

  • Store and/or access information on your device

    Cookies, device identifiers or other information can be stored or accessed on your device for the purposes indicated above.

  • Personalised ads and content, ad and content measurement, audience insights, and products development

    Ads and content can be personalised based on a profile. More data can be added to better personalise ads and content. Ad and content performance can be measured. Insights about the audience who saw the ads and content can be derived. Such data can be used to develop or improve user’s experience, systems and software.

By clicking ‘I Agree’ you will allow the use of indicated cookies, device identifiers, web beacons or other similar technologies. Your settings can be changed in the browser on your device.

For certain purposes, legitimate interests may be relied on, rather than consent. You can read more about this in our Privacy and Cookie Policy.